Location: Unspecified
(0.0000°N, 0.0000°E)
Time: 14:06:22
(UTC+01:00)

OPAL - Visible Passes

Search period start: 11 December 2017 00:00
Search period end: 21 December 2017 00:00
Orbit: 743 x 795 km, 100.2° (Epoch: 10 December)

Date Brightness Start Highest point End Pass type
(mag) Time Alt. Az. Time Alt. Az. Time Alt. Az.
11 Dec 9.4 20:21:59 10° SE 20:23:09 16° SE 20:23:09 16° SE visible
11 Dec 10.2 22:01:34 10° SSW 22:03:25 16° SW 22:03:25 16° SW visible
12 Dec 9.1 21:24:39 10° S 21:27:24 29° SSW 21:27:24 29° SSW visible
13 Dec 9.0 20:49:09 10° SSE 20:51:22 26° SSE 20:51:22 26° SSE visible
14 Dec 9.6 20:14:57 10° SE 20:15:20 12° ESE 20:15:20 12° ESE visible
14 Dec 9.9 21:53:24 10° SSW 21:55:37 19° SW 21:55:37 19° SW visible
15 Dec 9.0 21:16:58 10° S 21:19:35 30° S 21:19:35 30° S visible
16 Dec 9.2 20:41:47 10° SSE 20:43:33 21° SE 20:43:33 21° SE visible
17 Dec 9.6 21:45:25 10° SSW 21:47:48 23° SW 21:47:48 23° SW visible
18 Dec 9.0 21:09:23 10° SSE 21:11:45 28° SSE 21:11:45 28° SSE visible
19 Dec 9.4 20:34:31 10° SE 20:35:43 16° SE 20:35:43 16° SE visible
19 Dec 10.4 22:14:55 10° SW 22:16:00 13° SW 22:16:00 13° SW visible
20 Dec 9.4 21:37:34 10° S 21:39:57 25° SSW 21:39:57 25° SSW visible
